Theta_e
288 290 290 290 291 291 292 294 295 297 299 301 301 303 309 309 311 310 308 310 310 308 304 304 305 302 299 299 298 294 295 293 286 288 286 283 281 281 281 284 287 286 288 283 280 283 288 289 293 296 295 297 296 293
288 288 289 290 290 291 291 293 295 297 298 300 301 302 307 310 310 310 307 308 309 309 303 304 304 305 306 306 302 295 299 292 293 286 281 279 279 277 279 284 287 287 288 287 287 289 291 293 295 298 298 299 296 294
287 288 289 289 290 290 290 291 294 295 299 300 301 302 307 308 310 310 307 308 306 303 296 299 299 301 302 303 304 299 295 294 294 291 284 281 285 283 282 282 286 286 288 289 290 291 290 292 295 295 297 298 297 295
287 287 288 289 289 290 290 291 291 297 298 299 302 302 306 309 309 309 307 307 306 303 296 294 295 297 300 302 303 302 297 295 293 290 288 279 284 286 285 286 285 287 287 285 287 290 291 293 294 294 295 296 297 294
286 287 287 288 289 290 290 290 292 295 300 300 303 304 307 309 309 306 306 306 307 307 293 290 292 294 296 298 300 297 295 293 292 290 283 284 285 285 282 282 283 287 287 289 290 292 292 293 294 294 292 295 295 294
286 286 287 288 288 289 290 289 290 294 299 302 302 305 307 310 309 305 302 302 305 306 299 292 290 291 293 295 296 293 294 293 292 292 287 287 289 288 279 277 286 290 291 294 292 293 293 293 294 295 293 293 294 293
285 286 287 287 288 289 289 289 290 293 297 299 301 304 307 308 309 305 304 304 303 304 301 288 288 289 291 292 291 291 292 292 292 290 288 288 287 288 279 282 291 295 295 293 292 292 292 293 294 295 294 293 293 293
285 285 286 287 288 288 290 289 290 295 298 300 302 303 304 308 306 305 304 304 302 303 299 288 285 288 290 290 290 291 291 291 290 287 286 286 284 282 283 287 290 293 294 293 292 292 292 294 293 294 294 293 293 293
285 285 285 287 288 289 290 289 291 295 298 300 302 304 304 303 302 300 303 301 303 303 290 287 288 288 289 288 289 290 290 290 286 281 282 282 276 283 289 291 293 294 294 294 293 292 291 292 293 293 293 293 293 293
285 285 285 287 288 289 290 289 291 294 297 299 300 303 299 299 300 299 300 300 300 297 291 286 287 287 288 287 286 287 285 284 285 281 281 281 283 287 297 298 299 296 295 294 292 289 291 291 292 293 293 293 293 292
285 285 286 287 288 289 290 289 292 293 296 298 297 295 297 297 299 299 297 299 295 292 287 285 286 286 288 289 287 286 285 279 285 280 280 276 280 283 296 296 297 300 296 296 296 297 297 297 296 294 293 293 292 292
285 285 287 288 288 289 289 290 293 295 297 298 297 296 297 298 297 298 298 296 298 293 283 286 287 288 287 289 285 281 282 279 284 275 277 283 286 294 295 295 294 293 295 296 296 296 296 296 295 295 294 293 293 293
285 286 287 288 288 289 289 292 294 294 296 296 297 296 297 296 297 297 297 295 287 283 284 285 285 287 287 285 279 280 283 281 274 280 284 286 291 296 295 294 294 295 294 294 295 296 295 295 296 296 295 294 293 292
285 287 287 287 288 289 292 293 293 296 297 298 296 295 297 295 297 292 291 292 289 285 286 286 282 286 284 282 279 281 269 272 275 281 288 290 295 295 295 295 296 297 296 295 295 295 295 295 295 295 295 294 294 293
286 287 287 288 288 291 293 293 294 296 299 298 297 298 295 284 283 285 287 288 287 288 289 286 285 285 281 279 274 272 274 279 282 288 289 294 296 295 296 296 296 297 298 297 295 295 295 295 295 295 295 294 294 293
287 288 288 288 289 291 292 293 295 296 298 296 291 289 284 286 286 287 287 288 290 290 292 292 287 290 284 281 278 282 285 287 290 283 294 296 296 296 296 296 297 295 296 298 296 296 295 295 294 295 294 294 294 293
288 287 287 289 290 292 293 294 297 297 296 292 289 289 289 291 290 288 289 290 291 296 293 291 293 292 277 278 282 279 286 290 291 296 297 298 299 299 297 296 296 297 296 296 295 296 295 294 294 294 294 294 294 293
288 287 288 289 291 292 293 295 296 292 284 286 287 286 288 288 291 290 290 291 292 295 294 295 284 286 289 293 288 286 287 295 296 296 296 297 298 299 299 297 296 297 297 296 295 295 295 295 294 294 294 293 293 294
288 289 289 290 291 295 295 294 293 282 283 286 287 288 289 290 291 292 291 291 294 296 294 287 283 283 288 284 287 296 296 295 297 298 297 297 297 298 298 299 297 297 297 297 295 296 296 296 295 294 294 294 294 295
288 289 292 293 294 295 292 289 290 288 286 286 288 288 287 289 290 291 291 292 291 291 288 285 286 290 293 295 297 295 294 294 295 296 295 295 294 295 295 297 295 296 297 296 295 295 295 294 294 294 294 294 294 294
290 291 292 294 293 292 288 287 287 287 287 286 287 288 289 290 289 291 292 292 293 290 285 293 293 293 294 295 295 295 294 294 295 295 294 293 294 294 294 294 294 296 297 296 296 296 295 296 295 294 294 294 293 294
291 292 292 293 292 290 288 288 288 288 288 286 286 288 287 284 290 292 292 294 293 296 294 294 293 294 294 295 295 295 295 295 295 295 294 292 293 294 294 294 295 294 295 296 296 296 296 296 295 294 293 293 293 293
292 292 292 293 290 289 286 287 287 288 290 282 283 282 283 283 288 290 289 293 295 296 294 293 295 294 294 295 295 296 296 295 295 294 293 293 294 295 295 294 294 294 294 295 295 295 294 293 294 294 293 293 293 293
292 292 291 289 288 284 287 284 287 285 283 279 279 284 283 281 287 281 283 287 294 296 297 295 294 294 295 295 297 298 299 299 295 293 293 293 294 294 294 294 294 294 293 294 294 293 294 294 294 293 292 292 292 292
290 287 289 279 286 286 280 279 280 285 280 274 282 283 281 281 277 279 283 285 291 293 296 296 296 295 294 294 295 295 296 296 295 294 293 294 294 293 292 292 292 293 293 293 293 294 294 293 293 293 293 292 292 291
281 280 282 277 281 285 279 283 278 279 272 275 279 274 277 274 283 289 281 282 286 288 291 293 294 294 294 294 294 294 295 295 296 294 293 293 293 292 291 292 291 291 292 292 293 293 293 293 293 292 291 291 291 291
278 276 280 281 283 283 278 278 280 277 279 281 277 275 275 287 289 278 276 279 282 284 286 288 290 291 291 292 292 293 293 294 294 293 292 293 292 291 290 291 291 292 293 293 292 291 291 291 291 291 290 289 289 289
271 272 278 277 280 279 276 277 281 292 287 279 278 281 288 289 285 273 276 277 280 282 284 286 287 289 290 290 291 291 292 292 293 292 292 292 291 290 290 291 291 292 292 292 292 290 289 290 289 289 289 289 289 289
271 273 275 276 278 276 269 276 277 273 274 277 278 279 269 270 270 272 275 279 281 282 284 285 287 288 288 289 290 290 290 291 292 291 292 292 291 290 290 290 290 291 291 292 291 290 288 288 289 289 288 288 287 287
269 272 275 276 278 279 272 273 272 273 274 274 274 273 272 270 271 274 277 278 280 281 282 283 284 284 285 286 287 288 288 289 290 290 290 291 290 290 290 290 290 291 291 291 290 288 287 288 288 287 287 287 286 286
269 272 274 274 271 273 273 274 275 275 275 274 275 275 271 274 275 276 277 278 280 280 281 282 283 284 285 286 287 287 288 288 289 290 290 289 289 289 289 289 289 289 290 290 288 287 287 287 286 286 285 285 285 285
270 271 273 279 276 276 275 275 277 277 277 278 275 275 274 274 275 275 277 278 279 280 281 282 283 284 284 285 286 286 287 288 288 289 288 289 288 288 287 287 288 289 289 288 287 286 286 286 286 286 285 284 282 280
271 272 272 273 275 275 277 276 275 273 275 274 274 274 275 273 273 275 277 278 279 279 280 281 281 282 283 283 284 285 285 286 287 288 288 288 287 286 287 287 287 287 287 287 286 285 286 286 284 282 281 280 279 278
Wind_Speed
20 20 18 18 20 22 27 22 30 33 30 43 47 48 40 42 49 63 43 50 45 20 22 29 30 20 15 15 6 14 7 3 3 2 4 4 3 6 1 4 7 8 9 4 3 1 8 13 7 6 3 2 4 5
22 23 22 20 23 24 27 21 26 25 36 44 46 45 39 43 53 51 35 44 46 13 11 25 29 30 32 27 21 30 6 9 13 4 0 3 2 2 3 3 1 3 7 5 10 7 6 13 10 10 6 7 8 7
23 24 24 23 24 23 30 23 20 26 31 42 42 45 39 44 47 61 51 41 44 10 8 17 19 24 28 23 25 13 9 12 10 7 9 3 3 4 4 6 4 5 10 4 1 5 19 32 32 28 26 26 23 10
24 24 25 22 23 23 26 30 29 15 24 40 40 44 45 46 50 65 50 45 42 14 6 6 12 17 22 23 24 23 9 20 14 10 4 3 3 9 3 2 4 5 12 6 6 15 23 32 26 21 16 11 12 5
23 21 22 21 21 19 21 28 22 14 27 43 36 44 41 44 41 60 50 41 48 29 6 6 12 9 15 21 25 20 13 19 11 6 2 3 4 4 1 1 4 14 8 6 8 11 4 5 5 7 16 21 14 9
17 17 18 20 19 17 20 28 31 16 18 36 36 37 42 37 61 55 12 40 43 31 10 3 5 7 13 16 19 17 17 13 7 5 3 4 5 5 3 3 10 30 26 30 5 7 8 4 3 3 3 16 15 10
15 16 17 18 20 17 17 25 32 22 5 47 34 32 34 46 56 44 13 23 46 34 9 5 3 7 18 20 15 14 12 7 4 5 3 5 5 5 3 4 7 21 26 28 27 15 9 12 6 7 8 12 12 10
18 17 17 18 19 21 19 25 30 13 2 30 39 29 28 31 46 33 11 18 45 24 10 5 2 6 13 5 6 8 6 5 3 3 4 4 5 1 4 19 15 16 18 22 29 28 17 8 16 13 14 14 13 11
20 20 20 20 19 21 19 23 22 7 7 19 33 27 34 37 25 20 23 43 35 12 11 5 8 6 14 6 7 5 5 2 3 2 2 4 2 6 12 19 25 27 19 9 21 29 31 25 15 16 18 18 15 14
23 23 21 21 19 17 19 24 17 11 9 24 29 19 9 16 34 44 25 8 8 4 5 3 9 4 12 6 3 6 3 2 2 2 5 3 5 27 37 35 30 14 17 20 14 26 33 35 33 28 21 19 15 11
22 22 23 20 20 18 20 22 14 13 8 15 11 6 35 51 35 6 7 6 6 3 4 7 6 7 8 3 3 2 3 1 3 3 4 2 5 8 22 40 51 48 30 23 20 14 14 22 27 28 26 20 18 16
19 22 20 19 16 16 20 19 10 18 14 16 18 39 29 8 5 6 4 4 3 6 8 6 11 10 9 7 5 3 3 2 3 3 2 4 6 24 17 18 9 28 43 40 23 20 15 15 19 18 21 22 22 17
19 19 18 20 19 17 17 15 14 12 35 39 15 5 6 3 4 5 6 2 4 7 15 15 7 8 7 4 7 3 4 3 5 1 4 6 12 11 16 19 11 12 23 40 41 28 23 16 17 20 20 19 21 22
20 18 21 21 17 19 15 13 24 39 9 6 6 6 4 5 5 5 4 6 9 21 33 23 12 6 7 3 3 5 1 2 3 1 6 4 16 11 16 15 15 15 18 33 42 33 26 19 15 16 18 19 19 21
19 19 19 14 16 6 9 17 30 21 2 6 6 4 4 5 5 8 17 14 17 43 33 17 12 8 2 5 3 5 3 5 6 5 4 6 7 11 11 12 13 15 18 29 39 31 29 21 17 15 16 17 16 18
17 12 12 13 9 7 18 23 38 9 6 5 4 4 3 4 2 5 13 24 33 37 19 10 5 4 2 6 4 8 7 7 4 4 10 3 11 9 9 10 10 14 19 30 36 28 29 25 19 16 16 16 16 17
15 12 16 13 11 10 33 15 14 2 5 3 3 7 7 4 5 9 21 23 44 24 4 4 5 4 4 3 1 5 6 4 8 16 6 3 7 11 11 10 7 12 18 29 34 26 27 27 23 19 17 18 17 16
11 12 12 11 10 22 21 4 5 7 5 5 4 8 3 7 19 16 14 36 20 8 12 5 11 4 6 7 4 4 18 17 11 11 10 13 12 9 8 7 3 9 16 22 28 25 25 29 29 23 17 17 17 18
12 7 11 10 12 9 4 5 5 4 5 3 11 10 10 16 13 18 35 29 10 9 20 5 5 3 4 5 5 3 6 6 3 8 9 7 11 13 14 12 6 11 17 23 28 26 23 23 22 19 18 19 17 17
11 6 3 7 14 5 5 6 5 8 3 3 8 8 8 9 17 31 33 14 10 4 2 2 4 4 7 5 9 3 1 2 4 9 7 7 7 8 12 12 9 11 16 24 27 24 22 22 22 21 20 19 19 18
1 4 3 13 8 11 7 5 8 6 8 8 8 6 8 14 15 18 10 7 2 2 1 2 2 9 13 12 8 3 1 2 5 6 12 11 7 10 7 10 10 13 19 24 29 25 23 21 19 20 18 19 18 17
5 9 7 11 8 7 10 11 8 7 6 6 5 5 7 3 4 6 6 2 2 2 1 3 9 10 10 10 7 4 7 10 10 9 7 6 7 10 7 8 11 12 20 20 23 25 21 18 20 20 17 17 18 19
14 7 8 8 7 9 3 5 4 4 4 2 3 4 3 2 3 11 2 5 4 7 6 8 9 11 13 12 11 11 13 14 13 8 6 9 11 12 11 10 8 9 15 16 18 23 22 19 18 17 17 19 19 19
10 7 7 6 8 2 3 4 4 5 5 4 3 4 2 3 9 2 3 4 7 15 16 10 10 10 10 7 6 8 10 13 13 9 9 12 14 13 11 8 7 11 14 13 14 16 18 17 19 20 19 18 17 16
6 8 5 5 5 4 5 3 3 3 3 1 4 2 1 4 2 1 3 3 13 18 17 15 13 11 7 5 2 2 6 10 13 13 13 14 12 9 8 4 2 10 11 9 7 11 12 15 15 14 15 16 13 11
7 8 5 1 2 3 2 3 1 3 3 3 3 2 2 3 3 4 3 4 8 12 13 14 16 16 16 14 10 9 9 10 12 14 12 15 13 9 6 3 6 4 8 7 8 8 10 12 12 12 11 10 9 9
4 4 7 7 4 4 4 4 3 2 4 4 3 3 3 3 4 2 3 5 7 9 10 11 12 13 13 12 12 11 11 9 7 10 11 12 9 7 6 4 3 5 7 9 7 4 3 5 7 7 7 7 7 7
4 6 4 7 5 4 4 2 2 2 2 3 6 2 7 5 3 1 2 4 5 5 7 8 8 7 7 7 7 8 6 5 6 7 9 8 7 7 5 5 5 1 3 2 8 8 6 6 8 9 9 7 4 2
4 4 4 4 3 5 2 2 1 4 1 4 3 2 2 3 3 3 4 4 5 6 6 6 7 8 7 6 6 5 4 5 3 3 6 5 4 4 5 5 6 4 3 3 5 7 5 6 7 7 7 6 5 5
6 6 3 3 3 2 3 2 2 4 4 5 5 6 5 5 8 8 7 6 7 7 8 8 8 9 8 6 6 5 4 3 2 2 4 6 5 5 4 6 7 8 8 6 7 8 10 9 11 11 11 11 11 11
2 2 2 1 1 3 3 10 10 7 5 6 8 5 6 6 8 9 7 7 8 8 8 8 8 9 7 7 6 7 7 7 7 8 8 7 8 9 7 7 10 12 13 13 12 12 11 13 14 15 16 16 16 15
2 2 1 1 2 8 5 1 1 2 3 2 4 5 4 3 3 3 5 6 7 8 9 9 9 8 7 6 6 5 6 7 9 11 12 11 13 13 14 14 12 12 12 13 14 15 14 16 19 19 18 18 19 20
2 3 3 2 4 4 7 3 1 4 6 4 5 4 3 2 2 4 5 5 6 8 9 9 9 9 10 10 10 10 9 10 13 15 14 14 16 15 14 14 15 14 16 18 19 19 19 19 21 22 23 25 26 26
Wind_Direction
273 271 272 269 274 272 269 261 243 246 235 222 219 221 219 223 215 214 209 206 200 196 189 191 192 174 168 165 147 151 111 200 78 157 154 202 158 208 112 181 174 166 167 200 125 207 289 189 109 180 177 96 350 342
269 267 269 269 272 271 252 281 249 249 236 220 222 218 217 215 219 213 205 203 194 193 184 192 200 207 208 208 173 165 176 159 170 100 198 102 159 119 169 244 155 243 194 180 190 215 247 203 229 205 226 274 341 324
264 265 264 269 271 271 262 286 278 262 222 220 219 216 213 216 213 209 206 198 191 145 132 173 195 199 203 206 200 161 198 177 191 179 152 172 176 137 169 240 197 235 188 225 131 257 235 249 250 254 264 263 281 279
257 261 257 262 270 273 271 276 288 245 226 221 213 213 216 204 209 206 202 204 188 158 123 178 190 186 198 201 195 195 191 176 171 164 148 151 155 190 210 203 192 204 152 192 263 280 268 262 257 252 260 231 197 219
252 254 258 257 262 266 274 276 277 304 197 207 208 202 205 198 206 191 201 196 191 182 122 134 157 173 186 193 192 185 185 167 161 148 129 209 145 132 51 18 238 187 189 179 221 233 227 261 278 269 235 220 216 248
253 254 256 259 262 264 265 276 275 297 205 207 200 192 198 197 192 181 166 186 191 185 117 134 110 150 160 173 171 163 174 177 176 164 153 151 168 182 143 228 248 208 214 220 210 225 210 221 262 311 188 200 215 203
268 263 256 266 267 268 267 274 269 286 263 199 186 185 190 186 186 176 189 191 184 185 148 100 90 133 145 141 137 147 159 167 160 160 157 149 188 169 133 235 224 222 229 228 226 228 234 227 219 195 163 163 177 191
262 267 263 256 263 263 259 258 268 268 221 161 180 181 189 196 184 187 184 171 179 163 137 116 101 139 164 137 118 133 142 149 121 152 144 158 161 94 257 240 242 233 233 234 228 224 227 227 213 207 203 199 199 203
259 265 261 257 255 248 252 254 268 234 197 172 171 176 175 168 167 156 151 159 166 160 133 135 149 175 170 108 114 115 143 114 202 146 215 158 211 225 234 240 246 244 222 213 220 219 224 229 230 221 214 211 208 207
260 262 252 249 253 241 236 247 251 218 197 187 184 168 161 153 154 140 136 130 152 129 112 107 130 130 154 143 119 125 153 136 168 238 148 195 256 247 251 252 252 251 218 213 196 203 214 225 224 223 219 214 214 224
260 249 241 238 238 237 228 241 242 234 200 187 166 103 138 134 138 112 136 146 129 115 145 125 133 126 159 125 127 171 147 116 161 234 160 269 271 243 260 248 245 239 231 226 224 236 231 229 220 220 220 216 209 213
256 232 236 241 235 230 238 245 231 226 209 200 129 132 139 135 122 133 146 132 162 159 155 142 134 125 122 138 110 149 119 86 211 119 82 262 247 257 269 274 258 234 225 221 218 219 215 216 217 221 223 222 223 227
240 230 229 230 233 240 247 235 229 243 147 126 122 133 135 128 111 162 137 119 130 168 161 154 130 123 120 127 87 120 124 169 123 113 233 235 263 258 292 288 280 241 216 213 216 220 216 212 208 213 214 214 219 220
228 227 222 231 237 237 202 232 212 147 185 110 133 135 166 163 193 198 181 147 142 146 145 142 113 116 131 105 140 100 256 121 71 260 236 242 252 305 306 284 244 237 220 204 203 211 209 207 204 207 207 210 216 217
214 216 233 231 229 223 212 192 191 197 129 100 128 132 181 106 72 115 120 120 127 142 139 109 84 104 111 106 58 115 77 222 211 226 228 246 323 324 312 297 240 221 207 203 194 204 200 202 198 197 194 202 208 207
196 204 228 231 242 224 199 207 188 254 91 114 98 99 104 88 131 99 113 123 144 145 121 86 103 100 123 127 124 210 143 217 234 219 237 6 16 346 328 320 240 223 202 194 191 197 198 199 196 199 199 200 202 204
189 195 210 225 228 207 177 185 180 130 95 113 100 106 153 75 117 138 146 153 159 144 117 109 117 171 113 69 248 191 207 222 214 206 209 308 346 355 340 341 243 223 206 192 196 195 198 198 203 210 207 200 198 200
201 209 229 240 202 169 176 193 82 69 65 41 120 111 134 125 138 140 148 157 158 134 128 164 133 148 160 167 239 225 229 236 244 224 244 296 299 296 317 332 307 221 204 194 198 199 201 206 214 216 208 201 201 201
199 242 236 210 182 145 118 69 66 90 64 63 82 72 83 100 116 150 152 158 144 123 132 139 93 157 208 211 212 251 257 240 288 293 291 262 262 267 267 274 281 222 205 197 199 201 205 209 208 206 208 205 206 206
232 235 172 148 120 102 88 83 89 85 79 63 72 62 67 81 122 148 153 149 138 159 83 102 190 206 168 159 172 145 303 346 347 348 332 331 317 289 255 246 246 218 205 202 200 200 203 200 199 202 205 205 208 211
61 174 128 113 83 73 83 68 72 85 101 79 103 74 69 89 123 141 140 133 42 27 311 222 157 146 118 109 122 138 44 347 12 323 298 297 305 326 292 246 250 223 207 208 205 199 201 203 202 209 210 210 210 209
203 157 67 69 61 58 62 45 86 99 82 109 91 72 83 64 94 133 117 85 292 243 248 147 147 131 114 119 116 81 32 19 6 336 317 313 327 343 329 261 252 239 215 207 208 208 207 201 206 210 213 214 215 217
104 75 54 47 76 48 52 32 83 56 100 102 77 68 46 64 133 142 145 207 226 198 151 129 145 146 125 109 89 66 42 26 18 6 351 333 334 330 321 293 268 222 214 215 206 205 208 210 213 214 217 222 222 224
56 49 39 48 53 74 46 43 58 84 89 52 70 106 171 158 163 61 196 228 189 183 192 175 152 134 120 114 82 49 30 16 7 0 341 333 326 329 325 304 255 194 192 201 211 209 207 211 216 218 221 226 229 232
46 12 30 25 53 68 39 31 13 80 96 28 111 129 233 159 93 160 211 216 178 178 187 200 205 213 199 176 207 346 1 358 350 345 345 344 325 332 339 340 259 209 193 190 196 201 202 213 221 223 221 222 228 239
68 7 39 147 15 87 206 85 129 138 122 83 97 142 145 109 112 215 213 158 172 182 187 198 209 218 230 240 245 255 276 304 322 332 340 352 343 344 359 59 111 152 181 183 186 197 215 217 220 221 220 223 229 236
66 341 19 45 58 100 66 54 102 113 112 149 182 141 100 121 220 208 123 158 157 172 186 195 206 216 225 235 246 252 257 266 294 327 339 349 348 3 16 23 79 144 167 191 194 193 225 232 212 199 190 198 206 209
56 19 82 350 5 21 142 99 128 110 120 126 127 144 161 183 196 84 130 146 155 175 187 188 189 187 190 210 223 230 234 253 269 312 338 354 354 5 29 57 64 98 187 162 180 174 185 190 184 177 180 187 192 191
35 19 24 30 351 24 52 84 36 27 50 181 145 137 139 68 47 86 106 128 154 161 153 155 161 164 163 168 191 207 221 237 240 338 349 4 40 30 32 45 40 60 125 81 161 170 147 141 149 150 140 134 118 104
12 25 44 31 355 298 334 5 43 80 79 85 96 108 97 89 62 74 88 120 135 134 144 149 156 155 148 145 136 133 121 110 134 139 64 58 69 71 68 50 48 67 77 76 94 116 110 115 115 111 110 104 98 96
347 42 55 23 238 312 101 115 104 91 66 60 64 78 100 113 85 67 81 105 121 127 127 139 149 151 148 144 140 125 111 109 102 94 83 75 86 95 92 87 82 80 81 86 97 106 115 115 108 106 102 97 93 86
181 188 227 188 129 157 153 183 124 123 91 81 69 71 79 80 82 80 85 113 123 125 134 136 133 131 129 121 122 120 123 113 103 92 90 94 101 106 100 91 88 85 92 102 106 108 111 105 102 98 96 91 87 85
220 199 212 251 158 196 200 192 42 84 53 50 49 65 61 54 111 112 114 119 129 132 128 124 123 118 115 117 116 112 110 113 112 100 94 93 90 92 99 101 101 104 111 110 109 109 108 106 100 96 94 93 91 90